sat.trackr.live / text

‹ back to catalog

STARLINK-34834

NORAD 65295 · 2025-184Y

PAYLOAD ACTIVE UNKNOWN

§ Identity

Operator
Country
US
Launch date
2025-08-22
Launch site
AFWTR
Launch vehicle
Mass (kg)
RCS (m²)

Purposes: comms

External: N2YO · Heavens-Above · Gunter

§ Orbital elements

Epoch: 2026-09-20T14:42:43.814304Z

Period
93.90 min
Inclination
97.2845°
Eccentricity
0.0001727
Mean motion
15.33477147 rev/d
Perigee alt
464.3 km
Apogee alt
466.6 km
Semi-major
6,843.6 km
B*
8.1323e-4
RAAN
311.6032°
Arg perigee
96.5519°
Mean anomaly
263.5921°
Rev number
6,074

§ Raw data

STARLINK-348341 65295U 25184Y   26263.61300711  .00026298  00000+0  81323-3 0  99912 65295  97.2845 311.6032 0001727  96.5519 263.5921 15.33477147 60749

JSON: /api/v1/satellites/65295 · /tle

For live sub-satellite position, see the globe view (requires WebGL).

§ Visibility from observer

Set your observer location to see the next 7 days of passes ≥ 10°. The values pass through the URL so the page stays shareable.

No JS? Fill the form by hand. The geolocation button needs JavaScript.